Location: Poughquag
(41.6090°N, 73.6820°W)
Time: 14:02:35
(UTC-04:00)

DIWATA 2B (PO-101) - Pass Details

Date: 05 June 2024
Orbit: 574 x 588 km, 98.1° (Epoch: 14 June)

Event Time Altitude Azimuth Distance (km) Brightness Sun altitude
Rises 03:13:40 0° 123° (ESE) 2,781 ? -18.0°
Reaches altitude 10° 03:16:33 10° 101° (E) 1,886 ? -17.7°
Maximum altitude 03:18:57 15° 64° (ENE) 1,566 ? -17.5°
Drops below altitude 10° 03:21:22 10° 28° (NNE) 1,891 ? -17.2°
Sets 03:24:14 0° 6° (N) 2,794 ? -16.9°
